Regional Weather Roundup
Issued by NWS

Home | Current Version | Previous Version | Text Only | Print | Product List | Glossary Off
Versions: 1 2 3 4 5 6 7 8 9 10 11 12 13 14 15 16 17 18 19 20 21 22 23 24 25 26 27 28 29 30 31 32 33 34 35 36 37 38 39 40 41 42 43 44 45 46 47 48 49 50

956
ASUS43 KIND 111259
RWRIN

WEATHER ROUNDUP FOR INDIANA
NATIONAL WEATHER SERVICE INDIANAPOLIS IN
800 AM EST THU FEB 11 2016

NOTE: "FAIR" INDICATES FEW OR NO CLOUDS BELOW 12,000 FEET WITH NO
SIGNIFICANT WEATHER AND/OR OBSTRUCTIONS TO VISIBILITY.

* - STATION DOES NOT REPORT WEATHER SUCH AS PRECIPITATION OR FOG.

+ - STATION NOT QUALITY CONTROLLED BY THE NATIONAL WEATHER SERVICE.
    USE DATA WITH CAUTION...ESPECIALLY DEWPOINT AND RELATIVE
    HUMIDITY OBSERVATIONS.

INZ001>003-010>013-019-020-111400-
NORTHWEST INDIANA

CITY           SKY/WX    TMP DP  RH WIND       PRES   REMARKS
GARY /AIRPORT/ PTCLDY    12   1  62 W12       30.28R WCI  -2
RENSSELAER +   CLEAR     10   1  67 NW6       30.26R WCI   1

$$

LMZ046-743>745-111400-
SOUTHERN LAKE MICHIGAN

STATION/POSITION TIME  TEMP    WIND        PRES    WAVE
                       AIR SEA DIR/SP/G            HT
                 (UTC) (F)     (DEG/KT/KT) (MB)    (FT)
BURNS HARBOR     1202   19     330/ 16/ 22 1024.0R
MICHIGAN CITY    1200   18     320/ 21/ 23   N/A

$$

INZ004-005-014>016-021>024-111400-
NORTH CENTRAL INDIANA

CITY           SKY/WX    TMP DP  RH WIND       PRES   REMARKS
ELKHART        FLURRIES  16  10  79 CALM      30.21R
GOSHEN         LGT SNOW  13   9  84 W5        30.20R FOG     WCI   5
SOUTH BEND     FLURRIES  16   9  74 NW8       30.21R WCI   5

$$

INZ006>009-017-018-025>027-111400-
NORTHEAST INDIANA

CITY           SKY/WX    TMP DP  RH WIND       PRES   REMARKS
ANGOLA *+      CLOUDY    12  10  92 W3        30.15R
FORT WAYNE     MOCLDY    15   7  70 W8        30.21R WCI   4

$$

INZ028-029-035-036-043>045-051>053-111400-
WEST CENTRAL INDIANA

CITY           SKY/WX    TMP DP  RH WIND       PRES   REMARKS
GREENCASTLE +  CLOUDY    12   3  67 CALM      30.25R
LAFAYETTE      CLEAR      8   1  73 W5        30.27R WCI   0
TERRE HAUTE    CLOUDY     8   5  87 N3        30.28R

$$

INZ030>032-037>040-046>048-054>057-064-065-111400-
CENTRAL INDIANA

CITY           SKY/WX    TMP DP  RH WIND       PRES   REMARKS
COLUMBUS       CLEAR     10   9  92 CALM      30.26R
GREENWOOD *+   CLEAR     10   7  85 CALM      30.25R
INDIANAPOLIS   PTCLDY    10   4  76 NW3       30.24R
-EAGLE CREEK   CLEAR     12   6  77 NW6       30.24R WCI   3
KOKOMO *+      MOCLDY     9   1  72 W9        30.23R WCI  -5
MT COMFORT *+  CLEAR      7   3  85 W3        30.24R
SHELBYVILLE    CLEAR     11   6  81 NW3       30.24R

$$

INZ033-034-041-042-049-050-058-059-111400-
EAST CENTRAL INDIANA

CITY           SKY/WX    TMP DP  RH WIND       PRES   REMARKS
MUNCIE         CLEAR      9   3  77 W6        30.22R WCI  -1

$$

INZ060-061-067>069-081>083-085>088-111400-
SOUTHWEST INDIANA

CITY           SKY/WX    TMP DP  RH WIND       PRES   REMARKS
EVANSVILLE       N/A     24  16  71 NE5       30.29R WCI  18
HUNTINGBURG *+ CLOUDY    21  12  68 N6        30.28R WCI  14

$$

INZ062-063-066-070>080-084-089>092-111400-
SOUTH CENTRAL AND SOUTHEAST INDIANA

CITY           SKY/WX    TMP DP  RH WIND       PRES   REMARKS
BLOOMINGTON    CLEAR      6   3  87 CALM      30.25R
MADISON *+     CLEAR     10   5  79 CALM      30.27R
SEYMOUR +      CLEAR     14   9  79 CALM      30.27R

$$





USA.gov is the U.S. government's official web portal to all federal, state and local government web resources and services.